Weather History for Grand Rapids, MN

Change the Weather History Date:

Saturday, November 10, 2012

  Actual Average Record
Temperature  
Mean Temperature 38 °F -  
Max Temperature 44 °F 36 °F 62 °F (1954)
Min Temperature 32 °F 23 °F -8 °F (1933)
Degree Days  
Heating Degree Days 27    
Moisture  
Dew Point 35 °F    
Average Humidity 91    
Maximum Humidity 100    
Minimum Humidity 81    
Precipitation  
Precipitation 0.31 in - - ()
Sea Level Pressure  
Sea Level Pressure 29.72 in    
Wind  
Wind Speed 9 mph (ESE)    
Max Wind Speed 13 mph    
Max Gust Speed 26 mph    
Visibility 6 miles    
Events Thunderstorm    
Averages and records for this station are not official NWS values.
T = Trace of Precipitation, MM = Missing Value Source: NWS Daily Summary

Daily Weather History Graph

Daily Weather History Graph

Search for Another Location

Airport:

Trip Planner

Search our weather history database for the weather conditions in past years. The results will help you decide how hot, cold, wet, or windy it might be!

Date:

Astronomy

Nov. 10, 2012 Rise Set
Actual Time 7:11 AM CST 4:44 PM CST
Civil Twilight 6:38 AM CST 5:16 PM CST
Nautical Twilight 6:01 AM CST 5:53 PM CST
Astronomical Twilight 5:25 AM CST 6:29 PM CST
Moon 3:03 AM CST (11/10) 2:42 PM CST (11/10)
Length of Visible Light 10h 38m
Length of Day
9h 32m
Waning Crescent, 14% of the Moon is Illuminated
Nov 10
Waning Crescent
Nov 13
New
Nov 20
First Quarter
Nov 28
Full
Dec 6
Last Quarter

Hourly Weather History & Observations

Time (CST) Temp. Windchill Dew Point Humidity Pressure Visibility Wind Dir Wind Speed Gust Speed Precip Events Conditions
12:15 AM 33.8 °F 26.4 °F 28.4 °F 81% 30.04 in 10.0 mi ESE 9.2 mph 16.1 mph N/A   Overcast
12:35 AM 33.8 °F 26.4 °F 28.4 °F 81% 30.03 in 10.0 mi East 9.2 mph 17.3 mph N/A   Overcast
12:55 AM 33.8 °F 24.8 °F 28.4 °F 81% 30.02 in 10.0 mi ESE 12.7 mph 20.7 mph N/A   Overcast
1:15 AM 32.0 °F 24.2 °F 28.4 °F 87% 30.00 in 10.0 mi ESE 9.2 mph 16.1 mph N/A   Overcast
1:35 AM 32.0 °F 24.2 °F 28.4 °F 87% 29.99 in 10.0 mi East 9.2 mph 18.4 mph N/A   Overcast
1:55 AM 32.0 °F 25.6 °F 30.2 °F 93% 29.98 in 10.0 mi ESE 6.9 mph - N/A   Overcast
2:15 AM 32.0 °F 23.6 °F 30.2 °F 93% 29.98 in 10.0 mi ESE 10.4 mph 16.1 mph N/A   Overcast
2:35 AM 32.0 °F 23.6 °F 30.2 °F 93% 29.96 in 10.0 mi East 10.4 mph 18.4 mph N/A   Overcast
2:55 AM 32.0 °F 23.0 °F 30.2 °F 93% 29.94 in 10.0 mi East 11.5 mph 19.6 mph N/A   Overcast
3:15 AM 32.0 °F 24.2 °F 30.2 °F 93% 29.93 in 10.0 mi East 9.2 mph 19.6 mph N/A   Overcast
3:35 AM 32.0 °F 23.6 °F 28.4 °F 87% 29.93 in 10.0 mi East 10.4 mph 16.1 mph N/A   Overcast
3:55 AM 33.8 °F 25.3 °F 28.4 °F 81% 29.93 in 10.0 mi East 11.5 mph 16.1 mph N/A   Overcast
4:15 AM 33.8 °F 27.0 °F 28.4 °F 81% 29.92 in 10.0 mi East 8.1 mph 17.3 mph N/A   Overcast
4:35 AM 33.8 °F 25.8 °F 28.4 °F 81% 29.90 in 10.0 mi East 10.4 mph 19.6 mph N/A   Overcast
4:55 AM 33.8 °F 25.3 °F 30.2 °F 87% 29.91 in 10.0 mi East 11.5 mph 18.4 mph N/A   Overcast
5:15 AM 33.8 °F 25.3 °F 30.2 °F 87% 29.90 in 10.0 mi ESE 11.5 mph 18.4 mph N/A   Overcast
5:35 AM 33.8 °F 25.8 °F 30.2 °F 87% 29.89 in 10.0 mi ESE 10.4 mph 18.4 mph N/A   Overcast
5:55 AM 33.8 °F 25.3 °F 30.2 °F 87% 29.88 in 8.0 mi ESE 11.5 mph 21.9 mph N/A   Overcast
6:15 AM 33.8 °F 25.8 °F 30.2 °F 87% 29.88 in 10.0 mi East 10.4 mph 17.3 mph N/A   Overcast
6:35 AM 33.8 °F 25.8 °F 30.2 °F 87% 29.86 in 10.0 mi East 10.4 mph 19.6 mph N/A   Overcast
6:55 AM 33.8 °F 27.0 °F 30.2 °F 87% 29.84 in 10.0 mi East 8.1 mph - N/A   Overcast
7:15 AM 33.8 °F 27.7 °F 30.2 °F 87% 29.83 in 9.0 mi East 6.9 mph - N/A   Overcast
7:35 AM 33.8 °F 25.3 °F 30.2 °F 87% 29.83 in 10.0 mi East 11.5 mph 20.7 mph N/A   Overcast
7:55 AM 33.8 °F 25.8 °F 30.2 °F 87% 29.81 in 7.0 mi ESE 10.4 mph 21.9 mph N/A   Overcast
8:15 AM 33.8 °F 26.4 °F 32.0 °F 93% 29.81 in 10.0 mi ESE 9.2 mph 19.6 mph N/A   Overcast
8:35 AM 33.8 °F 28.6 °F 32.0 °F 93% 29.80 in 10.0 mi East 5.8 mph 17.3 mph N/A   Overcast
8:55 AM 35.6 °F 29.9 °F 32.0 °F 87% 29.80 in 4.0 mi ESE 6.9 mph 17.3 mph N/A   Overcast
9:15 AM 35.6 °F 27.5 °F 33.8 °F 93% 29.78 in 6.0 mi ESE 11.5 mph 17.3 mph N/A Thunderstorm Overcast
9:35 AM 35.6 °F 29.2 °F 33.8 °F 93% 29.79 in 5.0 mi ESE 8.1 mph - N/A Thunderstorm Thunderstorm
9:55 AM 35.6 °F 29.9 °F 33.8 °F 93% 29.79 in 5.0 mi East 6.9 mph - 0.02 in Thunderstorm Overcast
10:15 AM 35.6 °F 31.7 °F 33.8 °F 93% 29.78 in 4.0 mi East 4.6 mph - 0.05 in Thunderstorm Overcast
10:35 AM 35.6 °F 29.9 °F 33.8 °F 93% 29.76 in 4.0 mi ESE 6.9 mph - 0.06 in Thunderstorm Overcast
10:55 AM 35.6 °F 31.7 °F 33.8 °F 93% 29.76 in 7.0 mi ENE 4.6 mph - 0.06 in Thunderstorm Overcast
11:15 AM 37.4 °F 31.4 °F 35.6 °F 93% 29.73 in 3.0 mi East 8.1 mph - N/A   Overcast
11:35 AM 37.4 °F 30.8 °F 35.6 °F 93% 29.72 in 3.0 mi ESE 9.2 mph - N/A   Overcast
11:55 AM 37.4 °F 31.4 °F 35.6 °F 93% 29.71 in 2.5 mi ESE 8.1 mph - N/A   Overcast
12:15 PM 37.4 °F 30.8 °F 35.6 °F 93% 29.69 in 2.5 mi East 9.2 mph - N/A   Overcast
12:35 PM 37.4 °F 30.8 °F 35.6 °F 93% 29.68 in 3.0 mi ESE 9.2 mph 16.1 mph N/A   Overcast
12:55 PM 37.4 °F 30.8 °F 35.6 °F 93% 29.67 in 3.0 mi ESE 9.2 mph 18.4 mph N/A   Overcast
1:15 PM 37.4 °F 29.3 °F 35.6 °F 93% 29.67 in 3.0 mi ESE 12.7 mph 17.3 mph N/A   Overcast
1:35 PM 37.4 °F 30.3 °F 35.6 °F 93% 29.66 in 3.0 mi ESE 10.4 mph 16.1 mph N/A   Overcast
1:55 PM 39.2 °F 33.0 °F 37.4 °F 93% 29.65 in 4.0 mi ESE 9.2 mph 16.1 mph N/A   Overcast
2:15 PM 39.2 °F 33.0 °F 37.4 °F 93% 29.64 in 4.0 mi ESE 9.2 mph 19.6 mph N/A   Overcast
2:35 PM 39.2 °F 32.0 °F 37.4 °F 93% 29.61 in 5.0 mi ESE 11.5 mph 17.3 mph N/A   Overcast
2:55 PM 39.2 °F 32.5 °F 37.4 °F 93% 29.61 in 6.0 mi ESE 10.4 mph 26.5 mph N/A   Overcast
3:15 PM 39.2 °F 32.5 °F 37.4 °F 93% 29.60 in 5.0 mi ESE 10.4 mph 20.7 mph N/A   Overcast
3:35 PM 39.2 °F 32.0 °F 37.4 °F 93% 29.60 in 10.0 mi ESE 11.5 mph 21.9 mph N/A   Overcast
3:55 PM 39.2 °F 31.6 °F 37.4 °F 93% 29.59 in 9.0 mi ESE 12.7 mph 19.6 mph N/A   Overcast
4:15 PM 39.2 °F 32.5 °F 37.4 °F 93% 29.59 in 6.0 mi ESE 10.4 mph 19.6 mph N/A   Overcast
4:35 PM 39.2 °F 32.5 °F 37.4 °F 93% 29.59 in 3.0 mi ESE 10.4 mph 17.3 mph N/A   Overcast
4:55 PM 39.2 °F 33.0 °F 37.4 °F 93% 29.58 in 4.0 mi ESE 9.2 mph 17.3 mph N/A   Overcast
5:15 PM 39.2 °F 33.0 °F 37.4 °F 93% 29.58 in 10.0 mi ESE 9.2 mph 16.1 mph N/A   Overcast
5:35 PM 39.2 °F 32.5 °F 37.4 °F 93% 29.58 in 10.0 mi ESE 10.4 mph 19.6 mph N/A   Overcast
5:55 PM 41.0 °F 35.2 °F 39.2 °F 93% 29.58 in 10.0 mi ESE 9.2 mph 17.3 mph N/A   Overcast
6:15 PM 41.0 °F 35.2 °F 39.2 °F 93% 29.58 in 8.0 mi ESE 9.2 mph 17.3 mph N/A   Overcast
6:35 PM 41.0 °F 35.2 °F 39.2 °F 93% 29.56 in 4.0 mi ESE 9.2 mph - N/A   Overcast
6:55 PM 41.0 °F 34.7 °F 39.2 °F 93% 29.56 in 3.0 mi SE 10.4 mph 16.1 mph N/A   Overcast
7:15 PM 41.0 °F 35.2 °F 39.2 °F 93% 29.56 in 2.5 mi ESE 9.2 mph 17.3 mph N/A   Overcast
7:35 PM 41.0 °F 36.4 °F 39.2 °F 93% 29.54 in 2.0 mi ESE 6.9 mph - N/A   Overcast
7:55 PM 42.8 °F 38.6 °F 39.2 °F 87% 29.54 in 1.5 mi SE 6.9 mph - N/A   Overcast
8:15 PM 42.8 °F 38.6 °F 39.2 °F 87% 29.52 in 1.0 mi ESE 6.9 mph - N/A   Overcast
8:35 PM 42.8 °F 38.0 °F 39.2 °F 87% 29.51 in 0.8 mi ESE 8.1 mph - N/A   Overcast
8:55 PM 42.8 °F 38.6 °F 41.0 °F 93% 29.50 in 0.8 mi ESE 6.9 mph - N/A   Overcast
9:15 PM 42.8 °F 37.5 °F 41.0 °F 93% 29.48 in 0.8 mi ESE 9.2 mph - N/A   Overcast
9:35 PM 42.8 °F 38.0 °F 41.0 °F 93% 29.48 in 0.8 mi SE 8.1 mph - N/A   Overcast
9:55 PM 42.8 °F 38.6 °F 42.8 °F 100% 29.46 in 0.8 mi SE 6.9 mph - N/A   Overcast
10:15 PM 42.8 °F 36.2 °F 42.8 °F 100% 29.54 in 0.8 mi WSW 12.7 mph - N/A Thunderstorm Overcast
10:35 PM 42.8 °F 39.3 °F 42.8 °F 100% 29.50 in 5.0 mi SE 5.8 mph - 0.16 in Thunderstorm Overcast
10:55 PM 42.8 °F 40.1 °F 42.8 °F 100% 29.47 in 5.0 mi ESE 4.6 mph - 0.21 in   Overcast
11:15 PM 44.6 °F 40.7 °F 42.8 °F 93% 29.44 in 4.0 mi ESE 6.9 mph - 0.01 in   Mostly Cloudy
11:35 PM 44.6 °F 40.7 °F 42.8 °F 93% 29.44 in 4.0 mi SE 6.9 mph - 0.02 in   Overcast
11:55 PM 44.6 °F 40.2 °F 42.8 °F 93% 29.44 in 7.0 mi SE 8.1 mph - 0.02 in   Overcast